Location: Eimen
(51.8766°N, 9.7806°E)
Time: 15:15:57
(UTC+00:00)

Cosmos 2322 Rocket - Pass Details

Date: 23 May 2024
Orbit: 832 x 850 km, 71.0° (Epoch: 13 June)

Event Time Altitude Azimuth Distance (km) Brightness Sun altitude
Rises 00:50:31 0° 330° (NNW) 3,401 5.9 -14.7°
Reaches altitude 10° 00:52:59 10° 333° (NNW) 2,465 5.2 -14.5°
Maximum altitude 00:58:38 68° 56° (NE) 907 2.5 -14.2°
Drops below altitude 10° 01:04:16 10° 140° (SE) 2,463 4.4 -13.8°
Sets 01:06:44 0° 143° (SE) 3,396 5.1 -13.7°
